FENGYUN 1C DEB

Satellite information

Favourite Embed

Satellite Type and Status

DEBRISIN ORBIT

Key statistics

Satellite FENGYUN 1C DEB at a glance.

Uptime

9610

Days in orbit

Revolutions

≈ 14.3

Per day

Orbit

SSO

Sun Synchronous Orbit

Inclination

99.1

Latest

Satellite identification and parameters

Extended collection of information and parameters for FENGYUN 1C DEB.

Object identification

Identified? True

Debris? True

Object name: FENGYUN 1C DEB

International designator: 1999-025BWJ

Object number (NORAD): 31495

Object ID (CCSDS): 31495

Country: PEOPLES REPUBLIC OF CHINA (PRC)

Current information (Y/N): Y

RCS size: SMALL

Orbital parameters

Period: 100.821 minutes

Inclination: 99.1312 deg

SMA: 7175.657 km

Apoapsis: 817.029 km

Periapsis: 778.015 km

RAAN: 109.7297 deg

Eccentricy: 0.00271847

Argument of periapsis: 119.916 deg

Mean anomaly: 240.4724 deg

Mean motion: 14.28269845 rev/day

Mean motion (dot): 0.00003221 rev/day2

B* drag term: 0.0013051705 1/REarth

Two-line elements (TLE)

Creation date: Aug. 30, 2025, 3:38 a.m.

Reference frame: TEME

Reference center: EARTH

Epoch: Aug. 29, 2025, 8:50 a.m. UTC

TLE line 0: 0 FENGYUN 1C DEB

TLE line 1: 1 31495U 99025BWJ 25241.36831995 .00003221 00000-0 13052-2 0 9996

TLE line 2: 2 31495 99.1312 109.7297 0027185 119.9160 240.4724 14.28269845618865

Live tracking on map

Real-time ground track for satellite FENGYUN 1C DEB.

In-orbit conjunctions

A list of the most updated potential collisions computed for object FENGYUN 1C DEB.

Target Orbit TCA Probability of collision Miss distance Type
COSMOS 1867 COOLANT LEO 2024-09-25 17:48:24 0.0005306294 662.0 (m) DEBRIS
NOAA 16 DEB SSO 2024-07-11 06:10:06 0.0002010019 161.0 (m) DEBRIS

Associated space launch

Chinese polar orbiting meteorological satellite

FENGYUN 1C DEB was lifted into orbit during the mission ‘Long March 4B | Feng Yun 1C’, on board a Long March 4B space rocket.

The launch took place on May 10, 1999, 1:33 a.m. from Launch Complex 7.

For more information about the launch, click the button.

Launch to space Long March 4B | Feng Yun 1C
Long March 4B | Feng Yun 1C

Agency: N/A

Status: Launch Successful

Launch date: May 10, 1999, 1:33 a.m. UTC

Rocket: Long March 4B

Launch pad: Launch Complex 7

Location: Taiyuan Satellite Launch Center, People's Republic of China

...

Latest news about this satellite

There are no fresh news available about this satellite. Check back as we update our databases every day.


Newsletter sign-up

Weekly statistics, charts and insights to help you stay on top of the space industry.